SAS489 ENGM-OPIS

Flight info

Callsign SAS489
Flight time N/A
Altitude 35000
Route ENGM N0492F310 OKSA6D OKSAT L996 GETPA/N0484F350 L727 NEGIL DCT RUMAR DCT EVGUR DCT KENIN DCT URELA DCT UDROS UM859 ABKEV/N0486F370 UM859 KARDE UN644 ROLIN DCT TAGAR DCT BT DCT BARAD M747 SUBUT T923 ERLEV L850 BAKUV N701 LARGI B701 TUGTA A909 LEMOD N644 REGET J139 KALMI KALM1A OPIS
Aircraft B773/H-L/L

Departure

Time N/A
Airport Oslo-Gardermoen International Airport (ENGM)

Arrival

Time 2026-05-03 21:38
Airport Islamabad International Airport (OPIS)
Time Latitude Longitude Altitude Speed Heading
2026-05-03 20:15 36.96779 62.99171 35066 ft 528 kts 126°
2026-05-03 20:15 36.92349 63.06490 35073 ft 528 kts 126°
2026-05-03 20:16 36.87910 63.13808 35092 ft 529 kts 126°
2026-05-03 20:16 36.83455 63.21137 35075 ft 530 kts 126°
2026-05-03 20:17 36.78994 63.28459 35079 ft 530 kts 126°
2026-05-03 20:17 36.75284 63.34536 35080 ft 530 kts 126°
2026-05-03 20:18 36.70805 63.41859 35080 ft 530 kts 126°
2026-05-03 20:18 36.66324 63.49170 35089 ft 531 kts 126°
2026-05-03 20:19 36.61831 63.56483 35087 ft 532 kts 126°
2026-05-03 20:19 36.57326 63.63801 35087 ft 532 kts 126°
2026-05-03 20:20 36.52820 63.71105 35076 ft 532 kts 126°
2026-05-03 20:20 36.48307 63.78403 35101 ft 533 kts 126°
2026-05-03 20:21 36.43814 63.85655 35093 ft 533 kts 126°
2026-05-03 20:21 36.39277 63.92962 35096 ft 534 kts 126°
2026-05-03 20:22 36.34744 64.00248 35085 ft 534 kts 126°
2026-05-03 20:22 36.30200 64.07534 35110 ft 534 kts 126°
2026-05-03 20:23 36.25644 64.14825 35095 ft 535 kts 126°
2026-05-03 20:23 36.21081 64.22114 35087 ft 535 kts 126°
2026-05-03 20:24 36.16501 64.29416 35085 ft 536 kts 126°
2026-05-03 20:24 36.12031 64.36808 35107 ft 536 kts 124°
2026-05-03 20:25 36.07642 64.44273 35095 ft 537 kts 124°
2026-05-03 20:25 36.03238 64.51732 35094 ft 537 kts 124°
2026-05-03 20:26 35.98806 64.59171 35104 ft 537 kts 124°
2026-05-03 20:26 35.94392 64.66544 35103 ft 537 kts 124°
2026-05-03 20:27 35.89945 64.73957 35103 ft 537 kts 125°
2026-05-03 20:27 35.85500 64.81353 35105 ft 537 kts 125°
2026-05-03 20:28 35.81052 64.88741 35130 ft 537 kts 125°
2026-05-03 20:28 35.76600 64.96119 35128 ft 536 kts 125°
2026-05-03 20:29 35.72143 65.03491 35131 ft 537 kts 125°
2026-05-03 20:29 35.67678 65.10860 35145 ft 537 kts 125°
2026-05-03 20:30 35.63201 65.18231 35150 ft 537 kts 125°
2026-05-03 20:30 35.58743 65.25558 35170 ft 538 kts 125°
2026-05-03 20:31 35.54254 65.32916 35176 ft 538 kts 125°
2026-05-03 20:31 35.49760 65.40272 35177 ft 538 kts 125°
2026-05-03 20:32 35.45261 65.47620 35174 ft 538 kts 125°
2026-05-03 20:32 35.40754 65.54964 35183 ft 538 kts 125°
2026-05-03 20:33 35.36250 65.62288 35204 ft 538 kts 125°
2026-05-03 20:33 35.31737 65.69611 35197 ft 538 kts 125°
2026-05-03 20:34 35.27214 65.76935 35190 ft 538 kts 125°
2026-05-03 20:34 35.22693 65.84240 35198 ft 538 kts 125°
2026-05-03 20:35 35.18192 65.91498 35186 ft 538 kts 125°
2026-05-03 20:35 35.13638 65.98827 35193 ft 538 kts 125°
2026-05-03 20:36 35.09129 66.06069 35183 ft 538 kts 126°
2026-05-03 20:36 35.04597 66.13332 35184 ft 537 kts 126°
2026-05-03 20:37 35.00069 66.20577 35209 ft 537 kts 125°
2026-05-03 20:37 34.95521 66.27834 35220 ft 540 kts 126°
2026-05-03 20:38 34.90927 66.35079 35176 ft 540 kts 126°
2026-05-03 20:38 34.86332 66.42300 35190 ft 539 kts 126°
2026-05-03 20:39 34.81743 66.49506 35163 ft 538 kts 126°
2026-05-03 20:39 34.77149 66.56710 35190 ft 539 kts 126°
2026-05-03 20:40 34.72545 66.63921 35204 ft 539 kts 126°
2026-05-03 20:40 34.67945 66.71108 35176 ft 538 kts 126°
2026-05-03 20:41 34.63343 66.78283 35175 ft 538 kts 126°
2026-05-03 20:41 34.58740 66.85445 35175 ft 538 kts 126°
2026-05-03 20:42 34.54131 66.92605 35157 ft 538 kts 126°
2026-05-03 20:42 34.49544 66.99692 35137 ft 537 kts 127°
2026-05-03 20:43 34.44921 67.06802 35163 ft 537 kts 127°
2026-05-03 20:43 34.40290 67.13916 35157 ft 538 kts 127°
2026-05-03 20:44 34.35648 67.21039 35161 ft 539 kts 127°
2026-05-03 20:44 34.31543 67.28560 35144 ft 534 kts 112°
2026-05-03 20:45 34.28949 67.36919 35142 ft 528 kts 105°
2026-05-03 20:45 34.26774 67.45388 35131 ft 527 kts 104°
2026-05-03 20:46 34.24650 67.53861 35131 ft 527 kts 103°
2026-05-03 20:46 34.22560 67.62332 35144 ft 525 kts 103°
2026-05-03 20:47 34.20501 67.70780 35124 ft 523 kts 103°
2026-05-03 20:47 34.18460 67.79192 35126 ft 521 kts 103°
2026-05-03 20:48 34.16419 67.87603 35112 ft 521 kts 103°
2026-05-03 20:48 34.14394 67.95936 35116 ft 522 kts 103°
2026-05-03 20:49 34.12348 68.04360 35100 ft 524 kts 103°
2026-05-03 20:49 34.10300 68.12810 35100 ft 525 kts 103°
2026-05-03 20:50 34.08253 68.21276 35103 ft 525 kts 104°
2026-05-03 20:50 34.06241 68.29726 35069 ft 523 kts 103°
2026-05-03 20:51 34.04252 68.38149 35051 ft 520 kts 103°
2026-05-03 20:51 34.02277 68.46510 35042 ft 519 kts 103°
2026-05-03 20:52 34.00299 68.54880 35052 ft 519 kts 104°
2026-05-03 20:52 33.98376 68.63271 35020 ft 518 kts 103°
2026-05-03 20:53 33.96479 68.71647 35012 ft 518 kts 103°
2026-05-03 20:53 33.94603 68.79966 34981 ft 518 kts 103°
2026-05-03 20:54 33.92725 68.88335 34995 ft 517 kts 104°
2026-05-03 20:54 33.90049 69.00878 34954 ft 514 kts 103°
2026-05-03 20:55 33.88291 69.09214 34967 ft 513 kts 103°
2026-05-03 20:55 33.86538 69.17536 34977 ft 513 kts 103°
2026-05-03 20:56 33.84825 69.25860 34975 ft 512 kts 103°
2026-05-03 20:56 33.83172 69.34180 34970 ft 511 kts 103°
2026-05-03 20:57 33.81539 69.42479 34982 ft 509 kts 103°
2026-05-03 20:57 33.79966 69.50505 34972 ft 509 kts 103°
2026-05-03 20:58 33.79038 69.55253 34960 ft 508 kts 103°
2026-05-03 20:58 33.77446 69.63549 34955 ft 507 kts 103°
2026-05-03 20:59 33.75877 69.71808 34936 ft 507 kts 103°
2026-05-03 20:59 33.74310 69.80061 34905 ft 507 kts 103°
2026-05-03 21:00 33.73272 69.85533 34913 ft 507 kts 103°
2026-05-03 21:00 33.71280 69.96526 34903 ft 505 kts 103°
2026-05-03 21:01 33.69842 70.04761 34897 ft 503 kts 103°
2026-05-03 21:01 33.68651 70.11640 34874 ft 501 kts 103°
2026-05-03 21:02 33.67247 70.19780 34877 ft 500 kts 103°
2026-05-03 21:02 33.65882 70.27971 34889 ft 500 kts 103°
2026-05-03 21:03 33.64560 70.36159 34850 ft 500 kts 103°
2026-05-03 21:03 33.63247 70.44342 34851 ft 499 kts 103°
2026-05-03 21:04 33.61929 70.52516 34872 ft 499 kts 103°
2026-05-03 21:04 33.60618 70.60706 34874 ft 501 kts 103°
2026-05-03 21:05 33.59314 70.68946 34848 ft 503 kts 103°
2026-05-03 21:05 33.58015 70.77190 34852 ft 504 kts 103°
2026-05-03 21:06 33.56757 70.85191 34848 ft 504 kts 103°
2026-05-03 21:06 33.55468 70.93453 34841 ft 503 kts 103°
2026-05-03 21:07 33.54209 71.01647 34830 ft 503 kts 102°
2026-05-03 21:07 33.53686 71.10042 34821 ft 505 kts 92°
2026-05-03 21:08 33.53754 71.18466 34804 ft 505 kts 91°
2026-05-03 21:08 33.53893 71.26883 34786 ft 505 kts 91°
2026-05-03 21:09 33.54062 71.35307 34792 ft 507 kts 91°
2026-05-03 21:09 33.54247 71.43764 34791 ft 508 kts 91°
2026-05-03 21:10 33.54439 71.52245 34790 ft 509 kts 91°
2026-05-03 21:10 33.54640 71.60730 34785 ft 510 kts 91°
2026-05-03 21:11 33.54869 71.69231 34773 ft 510 kts 91°
2026-05-03 21:11 33.55110 71.77666 34708 ft 499 kts 91°
2026-05-03 21:12 33.55363 71.85813 34577 ft 480 kts 91°
2026-05-03 21:12 33.55633 71.93679 34449 ft 463 kts 91°
2026-05-03 21:13 33.55909 72.01212 34326 ft 446 kts 91°
2026-05-03 21:13 33.56053 72.04910 34005 ft 441 kts 91°
2026-05-03 21:13 33.56203 72.08561 33633 ft 437 kts 91°
2026-05-03 21:14 33.56361 72.12190 33232 ft 433 kts 91°
2026-05-03 21:14 33.56441 72.15773 32824 ft 426 kts 95°
2026-05-03 21:14 33.56312 72.19296 32439 ft 420 kts 98°
2026-05-03 21:14 33.56108 72.22773 32054 ft 416 kts 98°
2026-05-03 21:15 33.55882 72.26221 31585 ft 414 kts 98°
2026-05-03 21:15 33.55648 72.29657 31104 ft 413 kts 98°
2026-05-03 21:15 33.55400 72.33076 30630 ft 411 kts 99°
2026-05-03 21:15 33.54950 72.36447 30138 ft 407 kts 105°
2026-05-03 21:16 33.54322 72.39765 29666 ft 405 kts 107°
2026-05-03 21:16 33.53642 72.43037 29118 ft 404 kts 107°
2026-05-03 21:16 33.52949 72.46285 28580 ft 402 kts 107°
2026-05-03 21:16 33.52254 72.49498 28057 ft 401 kts 107°
2026-05-03 21:17 33.51548 72.52725 27527 ft 400 kts 108°
2026-05-03 21:17 33.51070 72.54893 27199 ft 399 kts 108°
2026-05-03 21:17 33.50124 72.59135 26534 ft 397 kts 108°
2026-05-03 21:17 33.49404 72.62327 26025 ft 396 kts 108°
2026-05-03 21:18 33.48673 72.65514 25525 ft 395 kts 107°
2026-05-03 21:18 33.47932 72.68683 25057 ft 395 kts 107°
2026-05-03 21:18 33.47188 72.71836 24590 ft 394 kts 108°
2026-05-03 21:18 33.46436 72.74989 24130 ft 393 kts 108°
2026-05-03 21:19 33.45683 72.78130 23683 ft 392 kts 107°
2026-05-03 21:19 33.45055 72.81309 23207 ft 392 kts 103°
2026-05-03 21:19 33.44556 72.84518 22685 ft 392 kts 101°
2026-05-03 21:19 33.44091 72.87727 22158 ft 391 kts 101°
2026-05-03 21:20 33.43935 72.88814 21983 ft 391 kts 101°
2026-05-03 21:21 33.43779 72.89896 21817 ft 390 kts 101°
2026-05-03 21:21 33.43319 72.93102 21300 ft 389 kts 101°
2026-05-03 21:21 33.42860 72.96294 20819 ft 389 kts 101°
2026-05-03 21:21 33.42411 72.99486 20320 ft 388 kts 101°
2026-05-03 21:22 33.41961 73.02667 19839 ft 387 kts 100°
2026-05-03 21:22 33.41513 73.05802 19367 ft 387 kts 101°
2026-05-03 21:22 33.41058 73.08966 18902 ft 386 kts 101°
2026-05-03 21:22 33.40595 73.12127 18447 ft 385 kts 100°
2026-05-03 21:23 33.40126 73.15284 17979 ft 384 kts 101°
2026-05-03 21:23 33.39653 73.18420 17462 ft 383 kts 101°
2026-05-03 21:23 33.39176 73.21550 16948 ft 382 kts 101°
2026-05-03 21:23 33.38695 73.24685 16325 ft 384 kts 101°
2026-05-03 21:24 33.38208 73.27841 15717 ft 386 kts 101°
2026-05-03 21:24 33.37718 73.31000 15099 ft 386 kts 101°
2026-05-03 21:24 33.37227 73.34165 14513 ft 387 kts 101°
2026-05-03 21:24 33.36734 73.37324 13938 ft 386 kts 101°
2026-05-03 21:25 33.36238 73.40478 13337 ft 386 kts 101°
2026-05-03 21:25 33.35738 73.43627 12697 ft 385 kts 101°
2026-05-03 21:25 33.35244 73.46722 12070 ft 376 kts 101°
2026-05-03 21:25 33.34774 73.49692 11421 ft 352 kts 101°
2026-05-03 21:26 33.34440 73.52511 10790 ft 332 kts 89°
2026-05-03 21:26 33.34860 73.55139 10173 ft 316 kts 65°
2026-05-03 21:26 33.36074 73.57226 9581 ft 301 kts 42°
2026-05-03 21:26 33.37750 73.58618 8936 ft 289 kts 21°
2026-05-03 21:27 33.39721 73.59044 8320 ft 293 kts 356°
2026-05-03 21:27 33.41676 73.58376 7893 ft 296 kts 330°
2026-05-03 21:27 33.43218 73.56763 7573 ft 295 kts 309°
2026-05-03 21:27 33.44278 73.54694 7331 ft 291 kts 291°
2026-05-03 21:28 33.44896 73.52408 7094 ft 286 kts 288°
2026-05-03 21:28 33.45485 73.50153 6844 ft 282 kts 288°
2026-05-03 21:28 33.46068 73.47927 6626 ft 277 kts 288°
2026-05-03 21:28 33.46630 73.45762 6505 ft 269 kts 288°
2026-05-03 21:29 33.47122 73.43635 6363 ft 261 kts 283°
2026-05-03 21:29 33.47522 73.41549 6232 ft 254 kts 283°
2026-05-03 21:29 33.47902 73.39512 6081 ft 247 kts 283°
2026-05-03 21:29 33.48275 73.37500 5961 ft 249 kts 283°
2026-05-03 21:30 33.48648 73.35464 5846 ft 251 kts 283°
2026-05-03 21:30 33.48970 73.33424 5756 ft 245 kts 279°
2026-05-03 21:30 33.49193 73.31449 5689 ft 243 kts 278°
2026-05-03 21:30 33.49412 73.29406 5561 ft 243 kts 278°
2026-05-03 21:31 33.49628 73.27405 5453 ft 242 kts 278°
2026-05-03 21:31 33.49838 73.25455 5306 ft 233 kts 278°
2026-05-03 21:31 33.50036 73.23596 5211 ft 218 kts 278°
2026-05-03 21:31 33.50221 73.21839 5057 ft 209 kts 278°
2026-05-03 21:32 33.50397 73.20094 4925 ft 213 kts 276°
2026-05-03 21:32 33.50522 73.18328 4821 ft 212 kts 274°
2026-05-03 21:32 33.50641 73.16575 4691 ft 208 kts 275°
2026-05-03 21:32 33.50758 73.14865 4560 ft 204 kts 275°
2026-05-03 21:33 33.50864 73.13178 4413 ft 199 kts 275°
2026-05-03 21:33 33.50956 73.11570 4310 ft 187 kts 274°
2026-05-03 21:33 33.51041 73.09964 4167 ft 195 kts 275°
2026-05-03 21:33 33.51126 73.08363 4026 ft 193 kts 276°
2026-05-03 21:34 33.51245 73.06770 3908 ft 190 kts 278°
2026-05-03 21:34 33.51380 73.05198 3795 ft 184 kts 280°
2026-05-03 21:34 33.51598 73.03686 3648 ft 187 kts 282°
2026-05-03 21:34 33.51831 73.02148 3559 ft 189 kts 282°
2026-05-03 21:35 33.52049 73.00583 3394 ft 192 kts 283°
2026-05-03 21:35 33.52260 72.99015 3306 ft 190 kts 283°
2026-05-03 21:35 33.52479 72.97452 3185 ft 189 kts 283°
2026-05-03 21:35 33.52682 72.95916 3057 ft 182 kts 283°
2026-05-03 21:36 33.52906 72.94462 2883 ft 173 kts 283°
2026-05-03 21:36 33.53151 72.93059 2717 ft 174 kts 284°
2026-05-03 21:36 33.53385 72.91626 2545 ft 175 kts 284°
2026-05-03 21:36 33.53599 72.90263 2473 ft 159 kts 284°
2026-05-03 21:37 33.53807 72.89007 2378 ft 149 kts 283°
2026-05-03 21:37 33.54011 72.87807 2319 ft 147 kts 281°
2026-05-03 21:37 33.54176 72.86587 2207 ft 148 kts 279°
2026-05-03 21:37 33.54361 72.85389 2093 ft 142 kts 283°
2026-05-03 21:38 33.54549 72.84241 1836 ft 142 kts 281°
2026-05-03 21:38 33.54728 72.83097 1773 ft 125 kts 279°
2026-05-03 21:38 33.54826 72.82448 1766 ft 53 kts 280°
2026-05-03 21:38 33.54891 72.82037 1768 ft 46 kts 281°
2026-05-03 21:39 33.54948 72.81676 1769 ft 42 kts 279°
2026-05-03 21:39 33.54994 72.81383 1768 ft 31 kts 281°
2026-05-03 21:39 33.55033 72.81137 1766 ft 28 kts 280°
2026-05-03 21:39 33.55068 72.80912 1766 ft 26 kts 280°
2026-05-03 21:40 33.55096 72.80736 1766 ft 17 kts 282°
2026-05-03 21:40 33.55166 72.80639 1764 ft 16 kts 348°
2026-05-03 21:40 33.55280 72.80652 1765 ft 16 kts
2026-05-03 21:40 33.55381 72.80674 1767 ft 15 kts 10°
2026-05-03 21:41 33.55464 72.80739 1766 ft 15 kts 74°
2026-05-03 21:41 33.55457 72.80866 1766 ft 15 kts 99°
2026-05-03 21:41 33.55438 72.80991 1766 ft 15 kts 101°
2026-05-03 21:41 33.55419 72.81117 1763 ft 15 kts 100°
2026-05-03 21:42 33.55401 72.81243 1763 ft 15 kts 100°
2026-05-03 21:42 33.55382 72.81369 1768 ft 15 kts 101°
2026-05-03 21:42 33.55364 72.81495 1764 ft 15 kts 99°
2026-05-03 21:42 33.55345 72.81621 1767 ft 15 kts 101°
2026-05-03 21:43 33.55325 72.81746 1769 ft 15 kts 101°
2026-05-03 21:43 33.55306 72.81870 1768 ft 15 kts 100°
2026-05-03 21:43 33.55287 72.81995 1769 ft 15 kts 99°
2026-05-03 21:43 33.55270 72.82121 1770 ft 15 kts 102°
2026-05-03 21:44 33.55247 72.82246 1768 ft 15 kts 101°
2026-05-03 21:44 33.55228 72.82372 1768 ft 15 kts 101°
2026-05-03 21:44 33.55209 72.82497 1773 ft 15 kts 98°
2026-05-03 21:44 33.55190 72.82623 1768 ft 15 kts 101°
2026-05-03 21:45 33.55172 72.82748 1772 ft 15 kts 99°
2026-05-03 21:45 33.55160 72.82832 1772 ft 15 kts 100°
2026-05-03 21:45 33.55174 72.82955 1775 ft 15 kts 64°
2026-05-03 21:45 33.55230 72.83063 1773 ft 15 kts 56°
2026-05-03 21:46 33.55300 72.83156 1774 ft 15 kts 19°
2026-05-03 21:46 33.55349 72.83133 1774 ft 4 kts 306°
2026-05-03 21:46 33.55365 72.83115 1773 ft 2 kts 321°
2026-05-03 21:46 33.55366 72.83114 1773 ft 0 kts 321°
2026-05-03 21:47 33.55367 72.83113 1773 ft 0 kts 321°
2026-05-03 21:47 33.55368 72.83111 1775 ft 0 kts 323°
2026-05-03 22:15 33.55349 72.83133 1771 ft 0 kts 306°
2026-05-03 22:15 33.55352 72.83127 1774 ft 1 kts 307°
2026-05-03 22:15 33.55361 72.83117 1775 ft 2 kts 317°
2026-05-03 22:16 33.55369 72.83116 1775 ft 0 kts 356°
2026-05-03 22:17 33.55373 72.83116 1773 ft 0 kts 356°
2026-05-03 22:18 33.55375 72.83117 1774 ft 1 kts 354°
2026-05-03 22:18 33.55376 72.83117 1773 ft 0 kts 357°
2026-05-03 22:19 33.55378 72.83122 1777 ft 3 kts
2026-05-03 22:19 33.55376 72.83126 1770 ft 0 kts 64°
2026-05-03 22:20 33.55375 72.83127 1772 ft 1 kts 71°